Regional Weather Roundup
Issued by NWS

Home | Current Version | Previous Version | Text Only | Print | Product List | Glossary On
Versions: 1 2 3 4 5 6 7 8 9 10 11 12 13 14 15 16 17 18 19 20 21 22 23 24 25 26 27 28 29 30 31 32 33 34 35 36 37 38 39 40 41 42 43 44 45 46 47 48 49 50
000
ASUS42 KFFC 170210
RWRGA
WEATHER ROUNDUP FOR GEORGIA
NATIONAL WEATHER SERVICE PEACHTREE CITY GA
900 PM EST MON JAN 16 2017

NOTE: "FAIR" INDICATES FEW OR NO CLOUDS BELOW 12,000 FEET WITH NO
SIGNIFICANT WEATHER AND/OR OBSTRUCTIONS TO VISIBILITY.

* = USE WITH CAUTION. THE STATIONS MARKED WITH AN ASTERISK MAY NOT
REPORT WEATHER SUCH AS PRECIPITATION, FOG, OR THUNDER AND ARE NOT
QUALITY CONTROLLED BY NWS.

THE REMARK "TC" DENOTES TEMPERATURE READING IN DEGREES CELSIUS.

GAZ001>058-170300-
NORTH GEORGIA

CITY           SKY/WX    TMP DP  RH WIND       PRES   REMARKS
ATLANTA        PTCLDY    61  55  81 E9        30.25R
ATHENS         CLOUDY    56  55  97 E6        30.28S
CHAMBLEE       PTCLDY    58  53  84 E5        30.26R
PEACHTREE CITY CLEAR     56  52  86 CALM      30.25R
ROME           PTCLDY    61  53  75 E5        30.22R
WEST ATLANTA   MOCLDY    62  54  74 E7        30.25R
CARTERSVILLE   CLEAR     59  53  80 E7        30.25R


CITY           SKY/WX    TMP DP  RH WIND       PRES   REMARKS
DALTON*        CLOUDY    59  54  82 S5        30.23S
LAWRENCEVILLE* CLEAR     57  54  88 CALM      30.25R
MARIETTA       MOCLDY    59  54  83 E7        30.25R
KENNESAW*      MOCLDY    57  52  82 CALM        N/A
CANTON*        MOCLDY    55  50  82 E6        30.28S
$$

GAZ059>098-102>109-170300-
CENTRAL GEORGIA

CITY           SKY/WX    TMP DP  RH WIND       PRES   REMARKS
AUGUSTA-BUSH   CLOUDY    57  54  89 E3        30.30R
AUGUSTA-DANIEL CLOUDY    59  54  83 E8        30.31R
COLUMBUS       PTCLDY    64  53  67 SE5       30.23R
MACON          CLOUDY    60  52  74 CALM      30.25R
ROBINS AFB     CLOUDY    59  54  82 CALM      30.25R


CITY           SKY/WX    TMP DP  RH WIND       PRES   REMARKS
LAGRANGE*      CLEAR     61  58  91 CALM      30.23R
SYLVANIA*      MOCLDY   N/A N/A N/A E7        30.31R
MILLEDGEVILLE* CLOUDY    63  59  88 E3        30.27R
$$

GAZ099>101-110>166-170300-
SOUTH GEORGIA

CITY           SKY/WX    TMP DP  RH WIND       PRES   REMARKS
SAVANNAH       FOG       60  57  89 E7        30.31R VSB 1/2
VALDOSTA       PTCLDY    59  53  80 CALM      30.26R
ALMA           CLOUDY    65  59  81 E7        30.27S
ST SIMONS      FOG       59  59 100 NE7       30.29R VSB 1
FT STEWART     FOG       60  58  96 CALM      30.28R VSB 3/4
ALBANY         CLEAR     59  54  83 CALM      30.27R
HUNTER AFB     MOCLDY    57  57 100 E6        30.29R
MOODY AFB      CLOUDY    63  53  69 CALM      30.25R
BRUNSWICK      FOG       59  59 100 E8        30.30R VSB 1/4


CITY           SKY/WX    TMP DP  RH WIND       PRES   REMARKS
BAINBRIDGE*    CLEAR     59  54  82 S3        30.25S
MOULTRIE*      CLEAR     61  55  82 CALM      30.26S HAZE
VIDALIA*       MOCLDY    64  63  94 SE6       30.29R
WAYCROSS*      MOCLDY    67  65  94 SE5       30.28S
DOUGLAS*       MOCLDY    63  52  67 SE5       30.29R
$$



USA.gov is the U.S. government's official web portal to all federal, state and local government web resources and services.